Time,TemperatureF,DewpointF,PressureIn,WindDirection,WindDirectionDegrees,WindSpeedMPH,WindSpeedGustMPH,Humidity,HourlyPrecipIn,Conditions,Clouds,dailyrainin,SoftwareType,DateUTC
2013-03-30 00:14:00,42.9,36.0,30.04,ESE,118,7.0,-999.0,77,-99.99,,,0.00,weatherlink.com 1.10,2013-03-30 05:14:00,
2013-03-30 00:28:00,42.7,36.0,30.03,ESE,119,7.0,-999.0,77,-99.99,,,0.00,weatherlink.com 1.10,2013-03-30 05:28:00,
2013-03-30 00:42:00,42.5,35.0,30.02,SSE,150,4.0,-999.0,76,-99.99,,,0.00,weatherlink.com 1.10,2013-03-30 05:42:00,
2013-03-30 00:57:00,42.6,36.0,30.01,ESE,121,12.0,-999.0,76,-99.99,,,0.00,weatherlink.com 1.10,2013-03-30 05:57:00,
2013-03-30 01:11:00,42.8,35.0,30.00,ESE,113,10.0,-999.0,75,-99.99,,,0.00,weatherlink.com 1.10,2013-03-30 06:11:00,
2013-03-30 01:25:00,42.8,35.0,29.99,East,91,8.0,-999.0,74,-99.99,,,0.00,weatherlink.com 1.10,2013-03-30 06:25:00,
2013-03-30 01:39:00,42.8,35.0,29.98,East,92,5.0,-999.0,74,-99.99,,,0.00,weatherlink.com 1.10,2013-03-30 06:39:00,
2013-03-30 01:54:00,42.7,35.0,29.97,SE,127,10.0,-999.0,73,-99.99,,,0.00,weatherlink.com 1.10,2013-03-30 06:54:00,
2013-03-30 02:08:00,42.9,35.0,29.97,SE,125,6.0,-999.0,73,-99.99,,,0.00,weatherlink.com 1.10,2013-03-30 07:08:00,
2013-03-30 02:22:00,42.7,34.0,29.97,ENE,64,5.0,-999.0,72,-99.99,,,0.00,weatherlink.com 1.10,2013-03-30 07:22:00,
2013-03-30 02:36:00,42.5,34.0,29.96,ESE,122,7.0,-999.0,73,-99.99,,,0.00,weatherlink.com 1.10,2013-03-30 07:36:00,
2013-03-30 02:51:00,42.4,34.0,29.97,SE,141,1.0,-999.0,73,-99.99,,,0.00,weatherlink.com 1.10,2013-03-30 07:51:00,
2013-03-30 03:05:00,42.1,34.0,29.95,ESE,116,5.0,-999.0,73,-99.99,,,0.00,weatherlink.com 1.10,2013-03-30 08:05:00,
2013-03-30 03:19:00,42.0,34.0,29.94,ESE,117,7.0,-999.0,74,-99.99,,,0.00,weatherlink.com 1.10,2013-03-30 08:19:00,
2013-03-30 03:34:00,42.0,34.0,29.93,ESE,102,7.0,-999.0,74,-99.99,,,0.01,weatherlink.com 1.10,2013-03-30 08:34:00,
2013-03-30 03:48:00,42.3,34.0,29.92,SE,137,10.0,-999.0,73,-99.99,,,0.01,weatherlink.com 1.10,2013-03-30 08:48:00,
2013-03-30 04:02:00,42.7,34.0,29.91,SE,146,7.0,-999.0,72,-99.99,,,0.01,weatherlink.com 1.10,2013-03-30 09:02:00,
2013-03-30 04:17:00,43.0,35.0,29.91,SSE,162,3.0,-999.0,72,-99.99,,,0.01,weatherlink.com 1.10,2013-03-30 09:17:00,
2013-03-30 04:31:00,42.9,35.0,29.95,South,179,2.0,-999.0,73,-99.99,,,0.01,weatherlink.com 1.10,2013-03-30 09:31:00,
2013-03-30 04:45:00,42.0,35.0,29.95,West,279,1.0,-999.0,77,-99.99,,,0.04,weatherlink.com 1.10,2013-03-30 09:45:00,
2013-03-30 04:59:00,41.3,35.0,29.94,West,279,0.0,-999.0,79,-99.99,,,0.06,weatherlink.com 1.10,2013-03-30 09:59:00,
2013-03-30 05:14:00,40.3,35.0,29.92,East,95,3.0,-999.0,82,-99.99,,,0.09,weatherlink.com 1.10,2013-03-30 10:14:00,
2013-03-30 05:28:00,39.4,35.0,29.92,SE,143,1.0,-999.0,84,-99.99,,,0.10,weatherlink.com 1.10,2013-03-30 10:28:00,
2013-03-30 05:42:00,39.1,35.0,29.92,SSE,147,3.0,-999.0,86,-99.99,,,0.10,weatherlink.com 1.10,2013-03-30 10:42:00,
2013-03-30 05:56:00,38.9,35.0,29.91,SE,125,3.0,-999.0,86,-99.99,,,0.11,weatherlink.com 1.10,2013-03-30 10:56:00,
2013-03-30 06:11:00,38.7,35.0,29.90,SE,127,2.0,-999.0,87,-99.99,,,0.11,weatherlink.com 1.10,2013-03-30 11:11:00,
2013-03-30 06:25:00,38.6,35.0,29.90,SE,127,1.0,-999.0,88,-99.99,,,0.11,weatherlink.com 1.10,2013-03-30 11:25:00,
2013-03-30 06:39:00,38.7,35.0,29.90,ESE,112,2.0,-999.0,88,-99.99,,,0.11,weatherlink.com 1.10,2013-03-30 11:39:00,
2013-03-30 06:54:00,38.8,36.0,29.89,ESE,117,2.0,-999.0,88,-99.99,,,0.11,weatherlink.com 1.10,2013-03-30 11:54:00,
2013-03-30 07:08:00,39.0,36.0,29.89,South,172,2.0,-999.0,88,-99.99,,,0.11,weatherlink.com 1.10,2013-03-30 12:08:00,
2013-03-30 07:22:00,39.3,36.0,29.89,SSE,160,3.0,-999.0,87,-99.99,,,0.11,weatherlink.com 1.10,2013-03-30 12:22:00,
2013-03-30 07:36:00,39.6,36.0,29.89,ESE,106,2.0,-999.0,87,-99.99,,,0.11,weatherlink.com 1.10,2013-03-30 12:36:00,
2013-03-30 08:05:00,39.0,35.0,29.89,SSW,204,0.0,-999.0,86,-99.99,,,0.11,weatherlink.com 1.10,2013-03-30 13:05:00,
2013-03-30 08:19:00,38.7,35.0,29.89,SSW,204,1.0,-999.0,86,-99.99,,,0.13,weatherlink.com 1.10,2013-03-30 13:19:00,
2013-03-30 08:34:00,38.4,35.0,29.89,SSE,147,0.0,-999.0,87,-99.99,,,0.13,weatherlink.com 1.10,2013-03-30 13:34:00,
2013-03-30 08:48:00,38.5,35.0,29.88,South,191,0.0,-999.0,88,-99.99,,,0.13,weatherlink.com 1.10,2013-03-30 13:48:00,
2013-03-30 09:02:00,38.7,35.0,29.88,SSE,166,0.0,-999.0,88,-99.99,,,0.13,weatherlink.com 1.10,2013-03-30 14:02:00,
2013-03-30 09:16:00,38.6,35.0,29.88,SSE,166,1.0,-999.0,88,-99.99,,,0.13,weatherlink.com 1.10,2013-03-30 14:16:00,
2013-03-30 09:31:00,38.8,36.0,29.88,SSW,195,2.0,-999.0,89,-99.99,,,0.13,weatherlink.com 1.10,2013-03-30 14:31:00,
2013-03-30 09:45:00,39.9,37.0,29.88,WSW,243,1.0,-999.0,89,-99.99,,,0.13,weatherlink.com 1.10,2013-03-30 14:45:00,
2013-03-30 09:59:00,40.2,37.0,29.88,SW,226,1.0,-999.0,89,-99.99,,,0.13,weatherlink.com 1.10,2013-03-30 14:59:00,
2013-03-30 10:13:00,42.2,39.0,29.88,West,263,6.0,-999.0,88,-99.99,,,0.13,weatherlink.com 1.10,2013-03-30 15:13:00,
2013-03-30 10:28:00,42.5,39.0,29.88,West,270,7.0,-999.0,87,-99.99,,,0.13,weatherlink.com 1.10,2013-03-30 15:28:00,
2013-03-30 10:42:00,43.3,39.0,29.88,West,259,5.0,-999.0,85,-99.99,,,0.13,weatherlink.com 1.10,2013-03-30 15:42:00,
2013-03-30 10:56:00,43.4,39.0,29.89,West,277,11.0,-999.0,85,-99.99,,,0.13,weatherlink.com 1.10,2013-03-30 15:56:00,
2013-03-30 11:10:00,43.6,39.0,29.89,West,280,3.0,-999.0,84,-99.99,,,0.13,weatherlink.com 1.10,2013-03-30 16:10:00,
2013-03-30 11:25:00,44.5,40.0,29.89,West,275,6.0,-999.0,84,-99.99,,,0.13,weatherlink.com 1.10,2013-03-30 16:25:00,
2013-03-30 11:39:00,44.9,40.0,29.88,WSW,255,8.0,-999.0,82,-99.99,,,0.13,weatherlink.com 1.10,2013-03-30 16:39:00,
2013-03-30 11:53:00,44.9,39.0,29.88,West,279,9.0,-999.0,81,-99.99,,,0.13,weatherlink.com 1.10,2013-03-30 16:53:00,
2013-03-30 12:08:00,45.4,40.0,29.88,West,272,7.0,-999.0,81,-99.99,,,0.13,weatherlink.com 1.10,2013-03-30 17:08:00,
2013-03-30 12:22:00,45.4,40.0,29.89,WSW,254,3.0,-999.0,80,-99.99,,,0.13,weatherlink.com 1.10,2013-03-30 17:22:00,
2013-03-30 12:37:00,46.2,40.0,29.89,NW,314,6.0,-999.0,79,-99.99,,,0.13,weatherlink.com 1.10,2013-03-30 17:37:00,
2013-03-30 13:05:00,47.1,41.0,29.88,WNW,301,6.0,-999.0,78,-99.99,,,0.13,weatherlink.com 1.10,2013-03-30 18:05:00,
2013-03-30 13:19:00,47.3,41.0,29.88,WNW,284,6.0,-999.0,78,-99.99,,,0.13,weatherlink.com 1.10,2013-03-30 18:19:00,
2013-03-30 13:34:00,47.5,41.0,29.87,WNW,293,7.0,-999.0,78,-99.99,,,0.13,weatherlink.com 1.10,2013-03-30 18:34:00,
2013-03-30 13:48:00,47.5,41.0,29.87,WSW,253,5.0,-999.0,78,-99.99,,,0.13,weatherlink.com 1.10,2013-03-30 18:48:00,
2013-03-30 14:02:00,47.8,41.0,29.87,WNW,291,5.0,-999.0,77,-99.99,,,0.13,weatherlink.com 1.10,2013-03-30 19:02:00,
2013-03-30 14:16:00,48.4,42.0,29.87,West,263,4.0,-999.0,77,-99.99,,,0.13,weatherlink.com 1.10,2013-03-30 19:16:00,
2013-03-30 14:31:00,48.5,42.0,29.87,West,271,6.0,-999.0,78,-99.99,,,0.13,weatherlink.com 1.10,2013-03-30 19:31:00,
2013-03-30 14:45:00,48.5,42.0,29.87,West,279,4.0,-999.0,77,-99.99,,,0.13,weatherlink.com 1.10,2013-03-30 19:45:00,
2013-03-30 14:59:00,48.1,42.0,29.87,WSW,243,5.0,-999.0,78,-99.99,,,0.13,weatherlink.com 1.10,2013-03-30 19:59:00,
2013-03-30 15:13:00,48.1,42.0,29.87,West,274,5.0,-999.0,79,-99.99,,,0.13,weatherlink.com 1.10,2013-03-30 20:13:00,
2013-03-30 15:27:00,48.2,42.0,29.86,West,276,5.0,-999.0,78,-99.99,,,0.13,weatherlink.com 1.10,2013-03-30 20:27:00,
2013-03-30 15:42:00,48.3,41.0,29.86,West,259,5.0,-999.0,77,-99.99,,,0.13,weatherlink.com 1.10,2013-03-30 20:42:00,
2013-03-30 15:56:00,48.2,42.0,29.87,West,268,8.0,-999.0,78,-99.99,,,0.13,weatherlink.com 1.10,2013-03-30 20:56:00,
2013-03-30 16:10:00,48.3,41.0,29.86,West,277,10.0,-999.0,77,-99.99,,,0.13,weatherlink.com 1.10,2013-03-30 21:10:00,
2013-03-30 16:24:00,48.2,41.0,29.86,WSW,254,6.0,-999.0,77,-99.99,,,0.13,weatherlink.com 1.10,2013-03-30 21:24:00,
2013-03-30 16:39:00,48.0,40.0,29.86,WNW,287,6.0,-999.0,73,-99.99,,,0.13,weatherlink.com 1.10,2013-03-30 21:39:00,
2013-03-30 16:53:00,47.6,39.0,29.87,WNW,303,5.0,-999.0,73,-99.99,,,0.13,weatherlink.com 1.10,2013-03-30 21:53:00,
2013-03-30 17:07:00,47.4,40.0,29.87,WNW,287,6.0,-999.0,74,-99.99,,,0.13,weatherlink.com 1.10,2013-03-30 22:07:00,
2013-03-30 17:21:00,47.1,39.0,29.87,WNW,287,3.0,-999.0,73,-99.99,,,0.13,weatherlink.com 1.10,2013-03-30 22:21:00,
2013-03-30 17:50:00,46.4,39.0,29.87,WNW,293,12.0,-999.0,74,-99.99,,,0.13,weatherlink.com 1.10,2013-03-30 22:50:00,
2013-03-30 18:05:00,46.0,39.0,29.87,West,275,5.0,-999.0,77,-99.99,,,0.13,weatherlink.com 1.10,2013-03-30 23:05:00,
2013-03-30 18:19:00,45.0,39.0,29.87,WSW,253,3.0,-999.0,78,-99.99,,,0.13,weatherlink.com 1.10,2013-03-30 23:19:00,
2013-03-30 18:33:00,44.3,38.0,29.88,West,271,6.0,-999.0,79,-99.99,,,0.13,weatherlink.com 1.10,2013-03-30 23:33:00,
2013-03-30 18:47:00,43.2,37.0,29.87,WNW,292,10.0,-999.0,80,-99.99,,,0.13,weatherlink.com 1.10,2013-03-30 23:47:00,
2013-03-30 19:01:00,42.5,36.0,29.87,West,281,8.0,-999.0,78,-99.99,,,0.13,weatherlink.com 1.10,2013-03-31 00:01:00,
2013-03-30 19:30:00,40.4,35.0,29.87,WSW,258,4.0,-999.0,81,-99.99,,,0.13,weatherlink.com 1.10,2013-03-31 00:30:00,
2013-03-30 19:44:00,39.6,34.0,29.87,West,278,3.0,-999.0,81,-99.99,,,0.13,weatherlink.com 1.10,2013-03-31 00:44:00,
2013-03-30 19:58:00,39.1,34.0,29.87,WSW,248,2.0,-999.0,82,-99.99,,,0.13,weatherlink.com 1.10,2013-03-31 00:58:00,
2013-03-30 20:13:00,38.4,33.0,29.88,WSW,256,3.0,-999.0,82,-99.99,,,0.13,weatherlink.com 1.10,2013-03-31 01:13:00,
2013-03-30 20:27:00,38.0,33.0,29.88,West,264,2.0,-999.0,82,-99.99,,,0.13,weatherlink.com 1.10,2013-03-31 01:27:00,
2013-03-30 20:41:00,37.3,33.0,29.88,SW,226,3.0,-999.0,83,-99.99,,,0.13,weatherlink.com 1.10,2013-03-31 01:41:00,
2013-03-30 20:56:00,37.1,32.0,29.89,WSW,250,2.0,-999.0,83,-99.99,,,0.13,weatherlink.com 1.10,2013-03-31 01:56:00,
2013-03-30 21:10:00,36.8,32.0,29.88,WSW,246,3.0,-999.0,83,-99.99,,,0.13,weatherlink.com 1.10,2013-03-31 02:10:00,
2013-03-30 21:24:00,36.5,32.0,29.88,WSW,258,5.0,-999.0,84,-99.99,,,0.13,weatherlink.com 1.10,2013-03-31 02:24:00,
2013-03-30 21:39:00,36.1,32.0,29.89,NW,308,4.0,-999.0,84,-99.99,,,0.13,weatherlink.com 1.10,2013-03-31 02:39:00,
2013-03-30 21:53:00,35.6,32.0,29.89,West,274,3.0,-999.0,85,-99.99,,,0.13,weatherlink.com 1.10,2013-03-31 02:53:00,
2013-03-30 22:07:00,35.5,31.0,29.89,West,267,4.0,-999.0,85,-99.99,,,0.13,weatherlink.com 1.10,2013-03-31 03:07:00,
2013-03-30 22:21:00,35.3,31.0,29.89,West,260,2.0,-999.0,85,-99.99,,,0.13,weatherlink.com 1.10,2013-03-31 03:21:00,
2013-03-30 22:36:00,35.0,31.0,29.89,WSW,247,4.0,-999.0,86,-99.99,,,0.13,weatherlink.com 1.10,2013-03-31 03:36:00,
2013-03-30 22:50:00,34.7,31.0,29.88,WSW,254,3.0,-999.0,86,-99.99,,,0.13,weatherlink.com 1.10,2013-03-31 03:50:00,
2013-03-30 23:04:00,34.4,31.0,29.88,West,270,2.0,-999.0,87,-99.99,,,0.13,weatherlink.com 1.10,2013-03-31 04:04:00,
2013-03-30 23:18:00,34.2,31.0,29.88,West,264,5.0,-999.0,87,-99.99,,,0.13,weatherlink.com 1.10,2013-03-31 04:18:00,
2013-03-30 23:33:00,33.9,30.0,29.88,West,259,4.0,-999.0,87,-99.99,,,0.13,weatherlink.com 1.10,2013-03-31 04:33:00,
2013-03-30 23:47:00,33.6,30.0,29.87,WSW,258,3.0,-999.0,87,-99.99,,,0.13,weatherlink.com 1.10,2013-03-31 04:47:00,